Skip Page Navigation
NASA JPL Caltech
NASA Logo - Jet Propulsion Laboratory + View the NASA Portal
+ Center for Near-Earth Object Studies
JPL Home Earth Solar System Stars & Galaxies Technology
JPL Solar System Dynamics
BODIES ORBITS EPHEMERIDES TOOLS PHYSICAL DATA DISCOVERY FAQ SITE MAP
JPL Small-Body Database Browser
Search: [ help ]  
101791 (1999 GV44)
Classification: Main-belt Asteroid          SPK-ID: 2101791
Ephemeris | Orbit Diagram | Orbital Elements | Mission Design | Physical Parameters | Discovery Circumstances ]

[ show orbit diagram ]
Orbital Elements at Epoch 2459000.5 (2020-May-31.0) TDB
Reference: JPL 22 (heliocentric ecliptic J2000)
 Element Value Uncertainty (1-sigma)   Units 
e .01698959322383773 4.2953e-08  
a 2.619698383886442 1.165e-08 au
q 2.575190773975066 1.128e-07 au
i 8.508535776274979 3.8481e-06 deg
node 76.18249287616888 2.8157e-05 deg
peri 299.1240516194218 0.00011322 deg
M 179.0797160903779 0.00011111 deg
tp 2458230.094700525390
(2018-Apr-21.59470053)
0.00047733 TDB
period 1548.728766528136
4.24
1.0331e-05
2.828e-08
d
yr
n .2324487074693074 1.5506e-09 deg/d
Q 2.664205993797818 1.1848e-08 au
  Orbit Determination Parameters
   # obs. used (total)      1318  
   data-arc span      11552 days (31.63 yr)  
   first obs. used      1988-11-03  
   last obs. used      2020-06-20  
   planetary ephem.      DE431  
   SB-pert. ephem.      SB431-N16  
   condition code      0  
   norm. resid. RMS      .49388  
   source      ORB  
   producer      Otto Matic  
   solution date      2020-Nov-12 19:58:29  

Additional Information
 Earth MOID = 1.59038 au 
 Jupiter MOID = 2.40742 au 
 T_jup = 3.390 
[ show covariance matrix ]

Ephemeris | Orbit Diagram | Orbital Elements | Mission Design | Physical Parameters | Discovery Circumstances ]

Physical Parameter Table
Parameter Symbol Value Units Sigma Reference Notes
absolute magnitude H 14.5   n/a MPO417514  

101791 (1999 GV44)          Discovered 1999-Apr-12 by LINEAR at Socorro
Reference: 20051019/Numbers.arcLast Updated: 2005-10-26

Alternate Designations
 1999 GV44 = 1988 VM12 = 1991 LH3 = 2001 UQ51 
Ephemeris | Orbit Diagram | Orbital Elements | Mission Design | Physical Parameters | Discovery Circumstances ]
ABOUT SSD CREDITS/AWARDS PRIVACY/COPYRIGHT GLOSSARY LINKS
FirstGov 2020-Dec-03 05:00 UT
(server date/time)  
NASA Home Page
Site Manager:   Ryan S. Park
Webmaster  Alan B. Chamberlin